Home   Weather   Versailles   Past weeks
Flag for France

Past Weather in Versailles, Île-de-France, France — Yesterday and Last 2 Weeks

Now
45 °F

Passing clouds.


Feels Like: 36 °F
Forecast: 47 / 30 °F
Wind: 24 mph from Northeast

Location: Villacoublay

Current Time: Mar 29, 2020 at 3:18:22 pm

Latest Report: Mar 29, 2020 at 2:30 pm


Visibility: N/A

Pressure: 30.33 "Hg

Humidity: 39%

Dew Point: 21 °F

Location of VersaillesLocation

Past Weather in Versailles — Graph

°F

Versailles Temperature Yesterday

Maximum temperature yesterday: 61 °F (at 2:30 pm)
Minimum temperature yesterday: 39 °F (at 5:30 am)
Average temperature yesterday: 49 °F

High & Low Weather Summary for the Past Weeks

 TemperatureHumidityPressure
High68 °F (Mar 19, 4:30 pm)94% (Mar 14, 3:00 pm)30.45 "Hg (Mar 14, 3:00 pm)
Low34 °F (Mar 23, 6:30 am)21% (Mar 24, 5:30 pm)29.83 "Hg (Mar 15, 3:30 pm)
Average48 °F63%30.16 "Hg
* Reported Mar 14 1:00 pm — Mar 29 2:00 pm, Versailles. Weather by CustomWeather, © 2020

Note: Actual official high and low records may vary slightly from our data, if they occured in-between our weather recording intervals... More about our weather records

Versailles Weather History for the Previous 24 Hours

Scroll right to see more
 ConditionsComfort  
Time TempWeatherWind HumidityBarometerVisibility
2:00 pm
Sun, Mar 29
45 °FPassing clouds.25 mph39%30.33 "HgN/A
1:30 pm43 °FSunny.20 mph46%30.33 "Hg10 mi
1:00 pm43 °FPassing clouds.20 mph49%30.33 "HgN/A
12:30 pm45 °FPartly sunny.18 mph46%30.33 "HgN/A
12:00 pm43 °FBroken clouds.21 mph49%30.33 "HgN/A
11:30 am43 °FBroken clouds.17 mph57%30.33 "HgN/A
11:00 am41 °FPartly sunny.16 mph61%30.33 "HgN/A
10:30 am43 °FMostly cloudy.18 mph57%30.33 "HgN/A
10:00 am41 °FOvercast.17 mph61%30.33 "HgN/A
9:30 am41 °FPartly sunny.16 mph57%30.33 "HgN/A
9:00 am39 °FPartly sunny.18 mph61%30.30 "HgN/A
8:30 am39 °FOvercast.15 mph65%30.30 "HgN/A
8:00 am39 °FOvercast.17 mph65%30.30 "HgN/A
7:30 am39 °FOvercast.20 mph61%30.30 "HgN/A
7:00 am39 °FOvercast.17 mph61%30.30 "HgN/A
6:30 am39 °FMostly cloudy.17 mph61%30.30 "HgN/A
6:00 am41 °FMostly cloudy.20 mph66%30.27 "HgN/A
5:30 am41 °FOvercast.21 mph66%30.27 "HgN/A
5:00 am41 °FMostly cloudy.20 mph66%30.27 "HgN/A
4:30 am41 °FMostly cloudy.17 mph66%30.27 "HgN/A
4:00 am41 °FMostly cloudy.20 mph70%30.27 "HgN/A
3:30 am41 °FOvercast.17 mph76%30.27 "HgN/A
3:00 am43 °FOvercast.22 mph71%30.27 "HgN/A
1:30 am43 °FOvercast.20 mph71%30.24 "HgN/A
1:00 am43 °FOvercast.21 mph76%30.24 "HgN/A
12:30 am43 °FOvercast.20 mph76%30.24 "HgN/A
12:00 am43 °FOvercast.18 mph76%30.24 "HgN/A
11:30 pm
Sat, Mar 28
45 °FOvercast.17 mph76%30.24 "HgN/A
11:00 pm45 °FOvercast.21 mph76%30.21 "HgN/A
10:30 pm45 °FPassing clouds.18 mph76%30.21 "HgN/A
10:00 pm46 °FPassing clouds.18 mph71%30.21 "HgN/A
9:30 pm46 °FPassing clouds.17 mph71%30.21 "HgN/A
9:00 pm48 °FPassing clouds.17 mph66%30.18 "HgN/A
8:30 pm52 °FClear.18 mph54%30.18 "Hg10 mi
8:00 pm52 °FClear.16 mph58%30.15 "Hg10 mi
7:30 pm54 °FPassing clouds.16 mph51%30.15 "HgN/A
7:00 pm55 °FClear.16 mph51%30.12 "Hg6 mi
6:30 pm57 °FClear.15 mph51%30.12 "Hg6 mi
6:00 pm57 °FClear.15 mph51%30.09 "Hg5 mi
5:30 pm59 °FPassing clouds.13 mph51%30.09 "Hg5 mi
5:00 pm59 °FPassing clouds.13 mph51%30.09 "Hg5 mi
4:30 pm59 °FPassing clouds.14 mph51%30.09 "Hg4 mi
4:00 pm59 °FPassing clouds.13 mph51%30.09 "HgN/A
3:30 pm61 °FClear.12 mph48%30.09 "Hg5 mi
3:00 pm61 °FClear.10 mph48%30.09 "Hg5 mi
Weather by CustomWeather, © 2020

See weather overview

Advertising